Fort Yukon, AK

6:00 PM AKDT on March 22, 2017 (GMT -0800)
Fort Yukon

Weather History for PFYU - September, 2012

Change the Weather History Date:

Wednesday, September 5, 2012

  Actual Average Record
Temperature  
Mean Temperature 52 °F -  
Max Temperature 62 °F 53 °F 68 °F (2002)
Min Temperature 42 °F 34 °F 24 °F (2014)
Degree Days  
Heating Degree Days 13    
Growing Degree Days 2 (Base 50)    
Moisture  
Dew Point 39 °F    
Average Humidity 62    
Maximum Humidity 87    
Minimum Humidity 37    
Precipitation  
Precipitation 0.00 in - - ()
Sea Level Pressure  
Sea Level Pressure 29.43 in    
Wind  
Wind Speed 3 mph (West)    
Max Wind Speed 15 mph    
Max Gust Speed 23 mph    
Visibility 10 miles    
Events      
Averages and records for this station are not official NWS values.
T = Trace of Precipitation, MM = Missing Value Source: NWS Daily Summary

Daily Weather History Graph

Daily Weather History Graph

Search for Another Location

Airport or City:

Trip Planner

Search our weather history database for the weather conditions in past years. The results will help you decide how hot, cold, wet, or windy it might be!

Date:

Astronomy

Sep. 05, 2012 Rise Set
Actual Time 6:29 AM AKDT 8:47 PM AKDT
Civil Twilight 5:31 AM AKDT 9:44 PM AKDT
Nautical Twilight 4:10 AM AKDT 11:03 PM AKDT
Astronomical Twilight 2:12 AM AKDT 1:06 AM AKDT
Moon 8:26 PM AKDT (9/5) 2:35 PM AKDT (9/5)
Length of Visible Light 16h 12m
Length of Day
14h 17m
Waning Gibbous, 75% of the Moon is Illuminated
Sep 5
Waning Gibbous
Sep 8
Last Quarter
Sep 15
New
Sep 22
First Quarter
Sep 29
Full

Hourly Weather History & Observations

Time (AKDT) Temp. Windchill Dew Point Humidity Pressure Visibility Wind Dir Wind Speed Gust Speed Precip Events Conditions
12:16 AM 50.0 °F - 41.0 °F 71% 29.46 in 10.0 mi Calm Calm - N/A   Overcast
12:36 AM 50.0 °F - 41.0 °F 71% 29.45 in 10.0 mi Calm Calm - N/A   Overcast
12:56 AM 50.0 °F - 41.0 °F 71% 29.46 in 10.0 mi Calm Calm - N/A   Overcast
1:16 AM 50.0 °F - 42.8 °F 76% 29.46 in 10.0 mi Calm Calm - N/A   Overcast
1:36 AM 51.8 °F - 42.8 °F 71% 29.47 in 10.0 mi SW 4.6 mph - N/A   Overcast
1:56 AM 53.6 °F - 41.0 °F 62% 29.46 in 10.0 mi South 3.5 mph - N/A   Overcast
2:16 AM 51.8 °F - 42.8 °F 71% 29.46 in 10.0 mi Calm Calm - N/A   Overcast
2:36 AM 51.8 °F - 42.8 °F 71% 29.47 in 10.0 mi SSE 4.6 mph - N/A   Overcast
2:56 AM 51.8 °F - 41.0 °F 67% 29.46 in 10.0 mi SSE 3.5 mph - N/A   Overcast
3:16 AM 51.8 °F - 39.2 °F 62% 29.45 in 10.0 mi South 4.6 mph - N/A   Mostly Cloudy
3:36 AM 51.8 °F - 41.0 °F 67% 29.45 in 10.0 mi South 4.6 mph - N/A   Partly Cloudy
3:56 AM 51.8 °F - 41.0 °F 67% 29.45 in 10.0 mi SSE 3.5 mph - N/A   Mostly Cloudy
4:16 AM 51.8 °F - 39.2 °F 62% 29.44 in 10.0 mi Calm Calm - N/A   Overcast
4:36 AM 50.0 °F - 39.2 °F 66% 29.45 in 10.0 mi Calm Calm - N/A   Overcast
4:56 AM 50.0 °F - 41.0 °F 71% 29.45 in 10.0 mi NNW 3.5 mph - N/A   Overcast
5:16 AM 48.2 °F - 42.8 °F 82% 29.46 in 10.0 mi NW 4.6 mph - N/A   Overcast
5:36 AM 48.2 °F - 42.8 °F 82% 29.45 in 10.0 mi North 4.6 mph - N/A   Overcast
5:56 AM 48.2 °F - 42.8 °F 82% 29.44 in 10.0 mi Calm Calm - N/A   Overcast
6:16 AM 48.2 °F - 41.0 °F 76% 29.44 in 10.0 mi Calm Calm - N/A   Overcast
6:36 AM 46.4 °F - 41.0 °F 81% 29.42 in 10.0 mi Calm Calm - N/A   Overcast
6:56 AM 46.4 °F - 41.0 °F 81% 29.42 in 10.0 mi Calm Calm - N/A   Overcast
7:16 AM 46.4 °F - 41.0 °F 81% 29.42 in 10.0 mi Calm Calm - N/A   Mostly Cloudy
7:36 AM 46.4 °F - 41.0 °F 81% 29.41 in 10.0 mi Calm Calm - N/A   Mostly Cloudy
7:56 AM 48.2 °F - 41.0 °F 76% 29.41 in 10.0 mi Calm Calm - N/A   Overcast
8:16 AM 48.2 °F - 41.0 °F 76% 29.41 in 10.0 mi Calm Calm - N/A   Overcast
8:36 AM 48.2 °F - 42.8 °F 82% 29.40 in 10.0 mi NE 4.6 mph - N/A   Overcast
8:56 AM 48.2 °F - 42.8 °F 82% 29.39 in 10.0 mi Calm Calm - N/A   Overcast
9:16 AM 48.2 °F - 42.8 °F 82% 29.39 in 10.0 mi Calm Calm - N/A   Mostly Cloudy
9:56 AM 53.6 °F - 42.8 °F 67% 29.39 in 10.0 mi Calm Calm - N/A   Scattered Clouds
10:16 AM 55.4 °F - 42.8 °F 63% 29.39 in 10.0 mi SSW 4.6 mph - N/A   Scattered Clouds
10:36 AM 57.2 °F - 41.0 °F 55% 29.39 in 10.0 mi SSW 5.8 mph - N/A   Scattered Clouds
10:56 AM 57.2 °F - 39.2 °F 51% 29.39 in 10.0 mi Calm Calm - N/A   Scattered Clouds
11:16 AM 59.0 °F - 41.0 °F 51% 29.39 in 10.0 mi WNW 4.6 mph - N/A   Scattered Clouds
11:36 AM 60.8 °F - 39.2 °F 45% 29.39 in 10.0 mi SW 4.6 mph - N/A   Scattered Clouds
11:56 AM 60.8 °F - 37.4 °F 42% 29.39 in 10.0 mi WSW 8.1 mph - N/A   Mostly Cloudy
12:16 PM 60.8 °F - 35.6 °F 39% 29.39 in 10.0 mi SW 8.1 mph - N/A   Mostly Cloudy
12:36 PM 60.8 °F - 35.6 °F 39% 29.39 in 10.0 mi WSW 5.8 mph - N/A   Scattered Clouds
12:56 PM 62.6 °F - 35.6 °F 37% 29.39 in 10.0 mi West 5.8 mph - N/A   Mostly Cloudy
1:16 PM 59.0 °F - 35.6 °F 42% 29.41 in 10.0 mi West 15.0 mph 20.7 mph N/A   Overcast
1:36 PM 57.2 °F - 37.4 °F 48% 29.41 in 10.0 mi West 9.2 mph 16.1 mph N/A   Overcast
1:56 PM 57.2 °F - 37.4 °F 48% 29.42 in 10.0 mi West 10.4 mph 18.4 mph N/A   Overcast
2:16 PM 57.2 °F - 37.4 °F 48% 29.43 in 10.0 mi West 9.2 mph 16.1 mph N/A   Mostly Cloudy
2:36 PM 55.4 °F - 39.2 °F 54% 29.44 in 10.0 mi WNW 11.5 mph 23.0 mph N/A   Overcast
2:56 PM 55.4 °F - 39.2 °F 54% 29.44 in 10.0 mi West 11.5 mph 18.4 mph N/A   Mostly Cloudy
3:16 PM 55.4 °F - 37.4 °F 51% 29.44 in 10.0 mi WNW 8.1 mph - N/A   Mostly Cloudy
3:36 PM 55.4 °F - 37.4 °F 51% 29.45 in 10.0 mi WNW 6.9 mph - N/A   Mostly Cloudy
3:56 PM 55.4 °F - 37.4 °F 51% 29.44 in 10.0 mi WNW 4.6 mph - N/A   Clear
4:16 PM 57.2 °F - 37.4 °F 48% 29.44 in 10.0 mi NW 6.9 mph - N/A   Partly Cloudy
4:36 PM 59.0 °F - 37.4 °F 45% 29.44 in 10.0 mi NW 6.9 mph 16.1 mph N/A   Partly Cloudy
4:56 PM 59.0 °F - 37.4 °F 45% 29.44 in 10.0 mi WNW 6.9 mph - N/A   Partly Cloudy
5:36 PM 57.2 °F - 33.8 °F 41% 29.44 in 10.0 mi North 6.9 mph - N/A   Partly Cloudy
5:56 PM 57.2 °F - 35.6 °F 44% 29.44 in 10.0 mi NNW 5.8 mph - N/A   Partly Cloudy
6:16 PM 57.2 °F - 35.6 °F 44% 29.43 in 10.0 mi North 3.5 mph - N/A   Partly Cloudy
6:36 PM 57.2 °F - 37.4 °F 48% 29.43 in 10.0 mi Calm Calm - N/A   Partly Cloudy
6:56 PM 57.2 °F - 35.6 °F 44% 29.43 in 10.0 mi WNW 3.5 mph - N/A   Partly Cloudy
7:16 PM 55.4 °F - 35.6 °F 47% 29.42 in 10.0 mi Calm Calm - N/A   Partly Cloudy
7:36 PM 55.4 °F - 39.2 °F 54% 29.42 in 10.0 mi Calm Calm - N/A   Partly Cloudy
7:56 PM 53.6 °F - 37.4 °F 54% 29.43 in 10.0 mi Calm Calm - N/A   Clear
8:16 PM 53.6 °F - 37.4 °F 54% 29.43 in 10.0 mi Calm Calm - N/A   Clear
8:36 PM 51.8 °F - 39.2 °F 62% 29.43 in 10.0 mi Calm Calm - N/A   Clear
8:56 PM 50.0 °F - 37.4 °F 62% 29.43 in 10.0 mi Calm Calm - N/A   Partly Cloudy
9:16 PM 48.2 °F - 37.4 °F 66% 29.43 in 10.0 mi Calm Calm - N/A   Clear
9:36 PM 46.4 °F - 42.8 °F 87% 29.43 in 10.0 mi Calm Calm - N/A   Clear
9:56 PM 42.8 °F - 37.4 °F 81% 29.43 in 10.0 mi Calm Calm - N/A   Clear
10:16 PM 42.8 °F - 37.4 °F 81% 29.43 in 10.0 mi Calm Calm - N/A   Mostly Cloudy
10:36 PM 42.8 °F - 37.4 °F 81% 29.43 in 10.0 mi Calm Calm - N/A   Mostly Cloudy
10:56 PM 44.6 °F 43.1 °F 39.2 °F 81% 29.44 in 10.0 mi West 3.5 mph - N/A   Mostly Cloudy
11:16 PM 48.2 °F - 39.2 °F 71% 29.45 in 10.0 mi Calm Calm - N/A   Overcast
11:36 PM 48.2 °F - 37.4 °F 66% 29.46 in 10.0 mi SW 3.5 mph - N/A   Overcast
11:56 PM 48.2 °F - 37.4 °F 66% 29.47 in 10.0 mi Calm Calm - N/A   Overcast